SL-16 DEB, 39853

Orbit data source: Space-Track

SL-16 DEB, 39853 is space debris in LEO originally from a launch on Fri, 25 Dec 1992 UTC launched from the Tyuratam Missile And Space Complex (TTMTR). Debris objects in space refer to the collection of defunct objects orbiting the Earth. Examples of debris include non-operational satellites, rocket bodies, and fragments generated from explosions, collisions, or faulty payload assembly.

Loading next visibility...
Identifier
39853, 1992-093LF
Orbit
LEO
Country
Flag of CISCIS
Related business
Manufacturer
Unknown
Mission
Spacecraft
Bus & Motor
Unknown
Mass
Unknown
Launch date (UTC)
1992-12-25 (33 years ago)
Launch vehicle
Unknown
Launch site
Tyuratam Missile And Space Complex (TTMTR)
Object type
Payload
Rocket body
Debris
Shape & HBR
Unknown shape, 0.1 m
Radar Cross Section
Small (<0.1 m²)

Expand to show TLE details & history
Last TLE update: 16 hours ago

TLE from 16 hours ago
0 SL-16 DEB
1 39853U 92093LF  25303.17005648  .00088248  00000-0  25891-2 0  9992
2 39853  71.2590 262.6181 0028716 280.7944  79.0011 15.34322254617674
Epoch: 2025-10-30T04:04Z
TLE epoch observation values (Epoch: 2025-10-30T04:04:52.879Z)
Latitude
-0.00001°
Longitude
162.66508°
Altitude
461.791 km
Speed
7.638 km/s
True Right ascension
17h 30m 28s
True Declination
0° 00' 00"
Sunlit
Object was in daylight at epoch
Visualization orbit readout
Latitude
Unknown
Longitude
Unknown
Altitude
Unknown
Speed
Unknown
Apparent Right ascension
Unknown
Apparent Declination
Unknown
Sunlit
N/A
Visualization observer readout
Local Sidereal Time
15:24:02
Azimuth
Unknown
Elevation
Unknown
Doppler factor
Unknown
Orbital elements
Apogee altitude
480.355 km
Perigee altitude
441.079 km
Semi-major axis
6,838.854 km
Eccentricity
0.00287
Inclination
71.259°
RAAN
262.6181°
Arg. of periapsis
280.7944°
True anomaly
79.32434°
Mean anomaly
79.0011°
Eccentric anomaly
79.1627°
Mean motion
3.83767 °/min
Orbital period
93.81 mins
BSTAR
0.0025891
Loading maneuver chart data...
Computing Atmospheric mass density...
Loading historical data...
Loading historical data...
Loading historical data...
Loading historical data...
Loading historical data...
Loading historical data...
Loading historical data...

Documentation

Showing up to 5 results
|